Location: Melita
(38.4566°N, 122.6369°W)
Time: 01:07:09
(UTC+00:00)

Gbstr 26 Del rocket - Pass Details

Date: 24 January 2020
Orbit: 493 x 1264 km, 51.8° (Epoch: 28 February)

Event Time Altitude Azimuth Distance (km) Brightness Sun altitude
Exits shadow 13:20:09 35° 232° (SW) 1,624 4.8 -23.8°
Maximum altitude 13:23:23 88° 319° (NW) 1,123 4.2 -23.2°
Drops below altitude 10° 13:31:18 10° 51° (NE) 3,190 7.2 -21.6°
Sets 13:34:17 0° 52° (NE) 4,200 8.0 -21.1°
